This demonstration page uses our WeatherBlox Daily Observations layout. Learn more.

39.92423, -83.80882

Hourly Observations for May 19, 2017

Temp ( °F °C ) Dew Point ( °F °C ) Humidity (%) Winds ( mph kmh ) Pressure ( in mb ) Visibility ( mi km ) Precip ( " mm )
12:28 am 00:28 Cloudy with Light Thunderstorms 70 21 64 18 83 83 SSW 7 11 29.94 1014 10 16.0934 0.16 4.064
12:56 am 00:56 Mostly Cloudy with Nearby Thunderstorms 69 20.6 66 18.9 90 90 SSW 3 6 29.96 1015 10 16.0934 0.17 4.318
1:14 am 01:14 Mostly Cloudy 70 21 66 19 88 88 SSW 5 7 29.94 1014 10 16.0934 0 0.0254
1:30 am 01:30 Cloudy with Nearby Thunderstorms 70 21 66 19 88 88 WSW 5 7 29.97 1015 10 16.0934 0 0.0254
1:50 am 01:50 Cloudy with Heavy Thunderstorms 68 20 66 19 94 94 NW 10 17 29.94 1014 4 6.43736 0.2 5.08
1:56 am 01:56 Cloudy with Light Thunderstorms 68 20 66 18.9 93 93 WNW 6 9 29.96 1015 7 11.26538 0.2 5.08
2:56 am 02:56 Cloudy with Heavy Thunderstorms 66 18.9 64 17.8 93 93 W 15 24 30 1016 4 6.43736 0.63 16.002
2:59 am 02:59 Cloudy with Heavy Thunderstorms 66 19 64 18 94 94 WNW 8 13 29.97 1015 2.5 4.02335 0.11 2.794
3:05 am 03:05 Cloudy with Heavy Thunderstorms 66 19 64 18 94 94 SW 6 9 29.97 1015 4 6.43736 0.18 4.572
3:56 am 03:56 Cloudy with Nearby Thunderstorms 66 18.9 64 17.8 93 93 Calm 29.98 1015 10 16.0934 0.32 8.128
4:05 am 04:05 Mostly Cloudy 66 19 64 18 94 94 Calm 29.97 1015 10 16.0934 0 0
4:56 am 04:56 Cloudy with Nearby Thunderstorms 66 18.9 64 17.8 93 93 S 7 11 29.99 1016 10 16.0934 0.05 1.27
5:31 am 05:31 Mostly Cloudy with Light Thunderstorms 66 19 64 18 94 94 WSW 5 7 29.97 1015 8 12.87472 0.02 0.508
5:56 am 05:56 Mostly Cloudy with Nearby Thunderstorms 67 19.4 65 18.3 93 93 Calm 29.99 1016 10 16.0934 0.02 0.508
6:34 am 06:34 Cloudy 66 19 64 18 94 94 S 6 9 29.97 1015 10 16.0934 0.03 0.762
6:56 am 06:56 Partly Cloudy 67 19.4 65 18.3 93 93 S 3 6 29.99 1016 10 16.0934 0.03 0.762
7:56 am 07:56 Sunny 68 20 67 19.4 96 96 N 3 6 30.01 1016 8 12.87472 0 0
8:56 am 08:56 Partly Cloudy 71 21.7 67 19.4 87 87 Calm 30 1016 10 16.0934 0 0
9:56 am 09:56 Mostly Cloudy 73 22.8 68 20 84 84 SSE 3 6 30.01 1016 10 16.0934 0 0
10:56 am 10:56 Partly Cloudy 75 23.9 68 20 79 79 VRB 3 6 30.01 1016 10 16.0934 0 0
11:56 am 11:56 Mostly Cloudy 78 25.6 69 20.6 74 74 S 5 7 30.01 1016 10 16.0934 0 0
12:40 pm 12:40 Cloudy 79 26 70 21 74 74 S 6 9 29.97 1015 10 16.0934 0 0
12:56 pm 12:56 Mostly Cloudy 79 26.1 70 21.1 74 74 SSW 7 11 29.99 1016 10 16.0934 0 0
1:03 pm 13:03 Mostly Cloudy with Nearby Thunderstorms 81 27 70 21 70 70 SSE 13 20 29.94 1014 10 16.0934 0 0
1:26 pm 13:26 Mostly Cloudy with Light Rain 81 27 70 21 70 70 VRB 3 6 29.91 1013 10 16.0934 0 0.0254
1:28 pm 13:28 Mostly Cloudy 81 27 70 21 70 70 SW 7 11 29.91 1013 10 16.0934 0 0.0254
1:43 pm 13:43 Cloudy 81 27 70 21 70 70 N 13 20 29.91 1013 10 16.0934 0 0.0254
1:56 pm 13:56 Cloudy 78 25.6 71 21.7 79 79 N 8 13 29.96 1015 10 16.0934 0 0.0254
2:56 pm 14:56 Partly Cloudy 81 27.2 68 20 65 65 S 12 19 29.92 1013 10 16.0934 0 0
3:21 pm 15:21 Partly Cloudy with Thunderstorms 81 27 66 19 62 62 S 10 17 29.85 1011 10 16.0934 0 0
3:29 pm 15:29 Partly Cloudy with Thunderstorms 81 27 66 19 62 62 SSW 10 17 29.85 1011 10 16.0934 0 0
3:48 pm 15:48 Sunny 81 27 66 19 62 62 SSW 10 17 29.85 1011 10 16.0934 0 0
3:56 pm 15:56 Sunny 81 27.2 67 19.4 62 62 SSW 10 17 29.9 1013 10 16.0934 0 0
4:56 pm 16:56 Windy with Storms Likely 69 20.6 66 18.9 90 90 WNW 30 48 29.99 1016 10 16.0934 0.04 1.016
5:03 pm 17:03 Cloudy with Heavy Thunderstorms 66 19 64 18 94 94 NNW 22 35 29.97 1015 2.5 4.02335 0.19 4.826
5:11 pm 17:11 Cloudy with Thunderstorms 66 19 64 18 94 94 NNW 15 24 29.97 1015 4 6.43736 0.25 6.35
5:32 pm 17:32 Cloudy with Light Thunderstorms 66 19 63 17 88 88 N 9 15 29.97 1015 10 16.0934 0.28 7.112
5:43 pm 17:43 Mostly Cloudy with Light Rain 66 19 64 18 94 94 N 10 17 29.97 1015 10 16.0934 0.28 7.112
5:56 pm 17:56 Mostly Sunny 66 18.9 64 17.8 93 93 NE 9 15 29.98 1015 10 16.0934 0.28 7.112
6:56 pm 18:56 Sunny 66 18.9 64 17.8 93 93 ENE 7 11 29.98 1015 10 16.0934 0 0
7:31 pm 19:31 Mostly Sunny 64 18 63 17 94 94 ENE 9 15 29.97 1015 9 14.48406 0 0
7:51 pm 19:51 Mostly Cloudy 64 18 63 17 94 94 E 8 13 30 1016 7 11.26538 0 0
7:56 pm 19:56 Mostly Cloudy 64 17.8 62 16.7 93 93 ENE 10 17 30.03 1017 7 11.26538 0 0
8:56 pm 20:56 Cloudy 58 14.4 56 13.3 93 93 E 12 19 30.07 1018 10 16.0934 0 0
9:56 pm 21:56 Cloudy 56 13.3 55 12.8 97 97 NE 12 19 30.07 1018 10 16.0934 0 0
10:56 pm 22:56 Cloudy 55 12.8 53 11.7 93 93 NE 13 20 30.07 1018 10 16.0934 0 0
11:56 pm 23:56 Cloudy 55 12.8 53 11.7 93 93 NE 8 13 30.07 1018 10 16.0934 0 0

Powered by AerisWeather